Weather History for Pensacola, FL

Change the Weather History Date:

Thursday, September 26, 2013

  Actual Average Record
Temperature  
Mean Temperature 80 °F 76 °F  
Max Temperature 89 °F 84 °F 94 °F (1955)
Min Temperature 70 °F 67 °F 50 °F (1975)
Cooling Degree Days 15 11  
Month to date cooling degree days 432 362  
Year to date cooling degree days 2414 2329  
Growing Degree Days 28 (Base 50)    
Moisture  
Dew Point 68 °F    
Average Humidity 70    
Maximum Humidity 90    
Minimum Humidity 50    
Precipitation  
Precipitation 0.00 in 0.20 in 5.63 in (2005)
Month to date precipitation 7.20 5.22  
Year to date precipitation 63.65 49.99  
Sea Level Pressure  
Sea Level Pressure 29.89 in    
Wind  
Wind Speed 5 mph (NE)    
Max Wind Speed 10 mph    
Max Gust Speed 15 mph    
Visibility 10 miles    
Events      
T = Trace of Precipitation, MM = Missing Value Source: NWS Daily Summary

Daily Weather History Graph

Daily Weather History Graph

Search for Another Location

Airport:

Trip Planner

Search our weather history database for the weather conditions in past years. The results will help you decide how hot, cold, wet, or windy it might be!

Date:

Astronomy

Sep. 26, 2013 Rise Set
Actual Time 6:39 AM CDT 6:39 PM CDT
Civil Twilight 6:15 AM CDT 7:03 PM CDT
Nautical Twilight 5:47 AM CDT 7:31 PM CDT
Astronomical Twilight 5:19 AM CDT 7:59 PM CDT
Moon 11:57 PM CDT (9/26) 1:10 PM CDT (9/26)
Length of Visible Light 12h 48m
Length of Day
12h 00m
Waning Gibbous, 54% of the Moon is Illuminated
Sep 26
Waning Gibbous
Sep 26
Last Quarter
Oct 4
New
Oct 11
First Quarter
Oct 18
Full

Hourly Weather History & Observations

Time (CDT) Temp. Heat Index Dew Point Humidity Pressure Visibility Wind Dir Wind Speed Gust Speed Precip Events Conditions
12:53 AM 72.0 °F - 68.0 °F 87% 29.82 in 10.0 mi West 3.5 mph - N/A   Clear
1:53 AM 71.1 °F - 68.0 °F 90% 29.82 in 9.0 mi Calm Calm - N/A   Clear
2:53 AM 71.1 °F - 68.0 °F 90% 29.82 in 9.0 mi NNW 5.8 mph - N/A   Clear
3:53 AM 71.1 °F - 66.9 °F 87% 29.83 in 10.0 mi Calm Calm - N/A   Clear
4:53 AM 70.0 °F - 66.9 °F 90% 29.84 in 10.0 mi NW 3.5 mph - N/A   Clear
5:53 AM 70.0 °F - 66.0 °F 87% 29.85 in 10.0 mi North 3.5 mph - N/A   Clear
6:53 AM 70.0 °F - 66.0 °F 87% 29.87 in 10.0 mi NNE 4.6 mph - N/A   Clear
7:53 AM 73.9 °F - 69.1 °F 85% 29.89 in 10.0 mi NNE 5.8 mph - N/A   Clear
8:53 AM 78.1 °F - 70.0 °F 76% 29.91 in 10.0 mi NNE 4.6 mph - N/A   Clear
9:53 AM 82.0 °F 85.9 °F 70.0 °F 67% 29.92 in 10.0 mi NNE 5.8 mph - N/A   Clear
10:53 AM 84.0 °F 87.8 °F 69.1 °F 61% 29.92 in 10.0 mi NE 6.9 mph - N/A   Clear
11:53 AM 87.1 °F 89.2 °F 66.0 °F 49% 29.92 in 10.0 mi NNE 6.9 mph - N/A   Clear
12:53 PM 86.0 °F 88.2 °F 66.0 °F 51% 29.90 in 10.0 mi Variable 5.8 mph - N/A   Scattered Clouds
1:53 PM 86.0 °F 88.2 °F 66.0 °F 51% 29.88 in 10.0 mi Variable 5.8 mph - N/A   Partly Cloudy
2:53 PM 82.9 °F 88.8 °F 73.0 °F 72% 29.88 in 10.0 mi SE 8.1 mph - N/A   Scattered Clouds
3:53 PM 82.0 °F 86.7 °F 72.0 °F 71% 29.88 in 10.0 mi SSE 6.9 mph - N/A   Mostly Cloudy
4:53 PM 82.0 °F 87.4 °F 73.0 °F 74% 29.88 in 10.0 mi Variable 4.6 mph - N/A   Mostly Cloudy
5:53 PM 80.1 °F 83.8 °F 72.0 °F 76% 29.89 in 10.0 mi SSE 3.5 mph - N/A   Mostly Cloudy
6:53 PM 78.1 °F - 72.0 °F 81% 29.90 in 10.0 mi Calm Calm - N/A   Scattered Clouds
7:53 PM 78.1 °F - 69.1 °F 74% 29.92 in 10.0 mi NE 5.8 mph - N/A   Clear
8:53 PM 77.0 °F - 68.0 °F 74% 29.95 in 10.0 mi NE 3.5 mph - N/A   Clear
9:53 PM 75.9 °F - 66.9 °F 74% 29.95 in 10.0 mi Variable 3.5 mph - N/A   Clear
10:53 PM 75.0 °F - 66.9 °F 76% 29.96 in 10.0 mi ENE 8.1 mph - N/A   Clear
11:53 PM 73.9 °F - 64.9 °F 73% 29.96 in 10.0 mi East 8.1 mph - N/A   Clear